Terminal Aerodrome Forecast
Issued by NWS

Home | Current Version | Previous Version | Text Only | Print | Product List | Glossary On
Versions: 1 2 3 4 5 6 7 8 9 10 11 12 13 14 15 16
000
FTUS42 KMLB 181501 AAA
TAFLEE
TAF AMD
KLEE 181501Z 1815/1912 18007KT P6SM BKN020 BKN250
     FM181600 25007KT P6SM VCTS SCT025CB SCT080 BKN150
     FM182100 28006KT P6SM SCT040 BKN250
     FM190000 20004KT P6SM FEW030 BKN080 OVC250
     FM190600 18003KT P6SM SCT120 BKN250=

USA.gov is the U.S. government's official web portal to all federal, state and local government web resources and services.